Tracking 29892 objects as of 21-Nov-2024
HD Live streaming from Space Station
objects crossing your sky now

ONEWEB-0416

Track ONEWEB-0416 now!
10-day predictions
ONEWEB-0416 is classified as:


NORAD ID: 51625
Int'l Code: 2022-012D
Perigee: 1,227.7 km
Apogee: 1,230.0 km
Inclination: 87.9 °
Period: 109.9 minutes
Semi major axis: 7599 km
RCS: Unknown
Launch date: February 10, 2022
Source: United Kingdom (UK)
Launch site: FRENCH GUIANA (FRGUI)
Your satellite tracking list
Your tracking list is empty




NASA's NSSDC Master Catalog

Two Line Element Set (TLE):
1 51625U 22012D   24325.50013396  .00000449  00000-0  12498-2 0  9992
2 51625  87.8896 150.5205 0001525  91.3831 268.7471 13.10375340134193
Source of the keplerian elements: AFSPC